Regional Weather Roundup
Issued by NWS

Home | Current Version | Previous Version | Text Only | Print | Product List | Glossary Off
Versions: 1 2 3 4 5 6 7 8 9 10 11 12 13 14 15 16 17 18 19 20 21 22 23 24 25 26 27 28 29 30 31 32 33 34 35 36 37 38 39 40 41 42 43 44 45 46 47 48 49 50

000
ASUS43 KLOT 310810
RWRIL

ILLINOIS REGIONAL WEATHER ROUNDUP
NATIONAL WEATHER SERVICE CHICAGO/ROMEOVILLE IL
300 AM CDT FRI OCT 31 2014

NOTE: "FAIR" INDICATES FEW OR NO CLOUDS BELOW 12,000 FEET WITH NO
SIGNIFICANT WEATHER AND/OR OBSTRUCTIONS TO VISIBILITY.

* THESE STATIONS ARE NOT UNDER NWS QUALITY CONTROL. THEY ALSO MAY NOT
  REPORT WEATHER SUCH AS PRECIPITATION OR FOG.

ILZ001-002-007-009-015-016-024-310900-
NORTHWEST ILLINOIS

CITY           SKY/WX    TMP DP  RH WIND       PRES   REMARKS
MOLINE         CLOUDY    45  28  51 NW21G30   30.14R
STERLING*      CLOUDY    45  28  53 N15G22    30.10F
SAVANNA*       CLOUDY    45  30  55 NW16      30.13R
$$

ILZ003-004-008-010-011-017-018-310900-
NORTH CENTRAL ILLINOIS

CITY           SKY/WX    TMP DP  RH WIND       PRES   REMARKS
ROCKFORD       CLOUDY    44  29  55 NW17      30.09S
FREEPORT*      CLOUDY    42  29  60 NW17G24   30.11S
ROCHELLE*      CLOUDY    43  32  65 N14       30.08S
DE KALB*       DRIZZLE   40  35  81 NW14G20   30.06R
PERU*          CLOUDY    47  39  73 NW17G23   30.07S
$$

ILZ005-006-012>014-019>023-310900-
NORTHEAST ILLINOIS

CITY           SKY/WX    TMP DP  RH WIND       PRES   REMARKS
CHICAGO-OHARE  CLOUDY    44  33  65 NW14G29   30.03R
CHICAGO-MIDWAY LGT RAIN  48  39  71 NW8       30.01F
AURORA         CLOUDY    44  34  67 NW20G28   30.05R
LANSING*       LGT RAIN  45  38  77 W6        30.01F
JOLIET*        CLOUDY    45  38  75 NW5       30.03F
WAUKEGAN       LGT RAIN  43  33  68 NW7       30.02R
DUPAGE AIRPORT LGT RAIN  44  36  73 NW21G32   30.04R
KANKAKEE*      CLOUDY    43  40  88 W7        30.04S
WHEELING       CLOUDY    45  33  63 NW12G25   30.05R
MORRIS*        CLOUDY    46  40  80 NW7       30.04S
ROMEOVILLE*    CLOUDY    46  37  73 NW9       30.03S
NORTHERLY ISL    N/A     48  37  65 NW10        N/A
$$

LMZ740>746-310900-
SOUTHERN LAKE MICHIGAN

STATION/POSITION SKY/WX   TEMP    WIND        PRES    VSBY  WAVE
                          AIR SEA DIR/SP/G                  HT/PER
                          (F)     (DEG/KT/KT) (MB)    (MI)  (FT/S)
SOUTHERN BUOY              45 53  320/ 21/ 27 1015.6R         5/ 5
WAUKEGAN HARBOR            44     330/ 13/ 20   N/A
HARRISON CRIB              48     300/ 15/ 18   N/A
BURNHAM HARBOR             47     330/  9/ 16   N/A
CALUMET HARBOR             47     290/  5/  8 1015.0F
MICHIGAN CITY              49     280/ 20/ 23   N/A
$$

ILZ025>027-034>036-040-047-049-050-058-095>099-310900-
WEST-CENTRAL ILLINOIS

CITY           SKY/WX    TMP DP  RH WIND       PRES   REMARKS
QUINCY         CLOUDY    46  41  82 NW9       30.14R
GALESBURG*     CLOUDY    46  39  79 NW15G24   30.12S
MACOMB*        CLOUDY    46  41  84 NW14      30.16R
JACKSONVILLE*  DRIZZLE   47  44  90 NW8       30.11R
PITTSFIELD*    CLOUDY    47  42  85 NW14      30.13R
$$

ILZ028>032-037-038-041>044-048-051>054-059>061-310900-
CENTRAL ILLINOIS

CITY           SKY/WX    TMP DP  RH WIND       PRES   REMARKS
PONTIAC        CLOUDY    46  42  87 W10       30.06S
BLOOMINGTON    CLOUDY    44  42  93 W8        30.07F
DECATUR        CLOUDY    44  42  93 N3        30.07S
PEORIA         CLOUDY    47  40  76 NW7       30.09S
LACON*         CLOUDY    46  39  77 NW9       30.08S
LINCOLN*       CLOUDY    45  42  91 NW3       30.07F
SPRINGFIELD    CLOUDY    46  42  86 NW8       30.09S
TAYLORVILLE    CLOUDY    43  41  93 N7        30.08S FOG
$$

ILZ033-039-045-046-055>057-062-063-310900-
EAST-CENTRAL ILLINOIS

CITY           SKY/WX    TMP DP  RH WIND       PRES   REMARKS
CHAMPAIGN      CLOUDY    44  41  89 MISG      30.05S
DANVILLE*      CLOUDY    43  40  89 W5        30.01F
RANTOUL*       CLOUDY    46  41  84 NW7       30.04F
MATTOON        MOCLDY    44  42  93 N6        30.04S
PARIS*         MOCLDY    43  42  97 CALM      30.05S
$$

ILZ079-100>102-310900-
SOUTHWEST ILLINOIS

CITY           SKY/WX    TMP DP  RH WIND       PRES   REMARKS
ALTON          PTCLDY    46  44  90 NW3       30.08R
BELLEVILLE     MOCLDY    48  47  99 N6        30.05R
CAHOKIA*       MOCLDY    48  45  89 N10       30.07R
SPARTA*        MOCLDY    48  46  93 NW3       30.04S
$$

ILZ064>066-069>071-074>076-080>082-084>086-088>090-092>094-310900-
SOUTH-CENTRAL ILLINOIS

CITY           SKY/WX    TMP DP  RH WIND       PRES   REMARKS
CARBONDALE     CLOUDY    50  48  93 CALM      30.02F
CAIRO*         CLOUDY    54  50  88 NW5       30.02R
EFFINGHAM*     CLOUDY    46  44  90 N3        30.05S
MARION         CLOUDY    50  48  93 CALM      30.03S
MT. VERNON     CLOUDY    48  43  81 NE5       30.03F
CENTRALIA*     CLOUDY    47  44  88 NE3       30.03S
SALEM*         CLOUDY    49  47  93 NE3       30.04S
METROPOLIS*    CLOUDY    51  51 100 CALM      30.00S
$$

ILZ067-068-072-073-078-083-087-091-310900-
SOUTHEAST ILLINOIS

CITY           SKY/WX    TMP DP  RH WIND       PRES   REMARKS
LAWRENCEVILLE  LGT RAIN  47  45  93 CALM      30.04S
FLORA*         CLEAR     46  44  93 CALM      30.04S
FAIRFIELD*     CLOUDY    47  46  93 CALM      30.03S
HARRISBURG*    CLOUDY    50  48  93 CALM      30.03S
ROBINSON*      CLOUDY    48  47  94 CALM      30.04F
CARMI*         CLOUDY    50  49  95 N5        30.02F
$$

ABBREVIATIONS USED IN REMARKS
   TC - TEMPERATURE IN CELSIUS
  WCI - WIND CHILL INDEX
   HX - HEAT INDEX
  VSB - VISIBILITY
$$




USA.gov is the U.S. government's official web portal to all federal, state and local government web resources and services.